Regional Weather Roundup
Issued by NWS

Home | Current Version | Previous Version | Text Only | Print | Product List | Glossary On
Versions: 1 2 3 4 5 6 7 8 9 10 11 12 13 14 15 16 17 18 19 20 21 22 23 24 25 26 27
000
ASUS44 KJAN 300820
RWRMS

MISSISSIPPI HOURLY WEATHER ROUNDUP
NATIONAL WEATHER SERVICE JACKSON MS
300 AM CDT TUE AUG 30 2016

NOTE: "FAIR: INDICATES FEW OR NO CLOUDS BELOW 12,000 FEET WITH NO
SIGNIFICANT WEATHER AND/OR OBSTRUCTIONS TO VISIBILITY.

MSZ001>002-007>008-010>013-018>021-025>028-034>036-300900-
NORTHWEST MISSISSIPPI

CITY           SKY/WX    TMP DP  RH WIND       PRES   REMARKS
CLARKSDALE     CLEAR     75  75 100 CALM      30.03S
GREENWOOD      PTCLDY    75  71  87 N6        30.00F
GREENVILLE     PTCLDY    76  73  91 N3        30.01S
OXFORD         FAIR      72  70  94 CALM      30.06S
TUNICA         SUNNY     72  72 100 N3        30.04S FOG
$$

MSZ003>006-009-014>017-022>024-029>033-037>039-300900-
NORTHEAST MISSISSIPPI

CITY           SKY/WX    TMP DP  RH WIND       PRES   REMARKS
COLUMBUS AFB   CLEAR     74  71  90 CALM      30.01S
CORINTH        FAIR      72  70  94 CALM      30.05R FOG
GOLDN TRIANGLE CLEAR     75  64  69 E3        30.01S
TUPELO         CLEAR     75  71  87 N6        30.03S
$$

MSZ040-058-300900-
CENTRAL MISSISSIPPI

CITY           SKY/WX    TMP DP  RH WIND       PRES   REMARKS
JACKSON INTL   CLEAR     75  73  93 CALM      29.99F
JACKSON HAWKNS CLEAR     75  73  93 CALM      29.99F
MERIDIAN KEY   CLEAR     76  71  85 CALM      30.00S
MERIDIAN NAS   CLEAR     76  69  79 CALM      30.01S
$$

MSZ059>079-300900-
SOUTH MISSISSIPPI

CITY           SKY/WX    TMP DP  RH WIND       PRES   REMARKS
BROOKHAVEN     FAIR     N/A N/A N/A CALM      30.00S
HATTIESBURG    CLEAR     75  73  93 CALM      29.97F
MCCOMB         PTCLDY    76  72  87 CALM      29.97F
NATCHEZ        PTCLDY    73  72  94 CALM      29.98S
PINE BELT      CLEAR     61 N/A N/A NE3       29.99S
$$

MSZ080>082-300900-
COASTAL MISSISSIPPI

CITY           SKY/WX    TMP DP  RH WIND       PRES   REMARKS
BILOXI         CLEAR     77  75  93 NE5       29.93F
PASCAGOULA     CLEAR     75  74  96 N5        29.94S
GULFPORT       CLEAR     77  75  93 CALM      29.93F
$$

LAZ007>009-015>016-023>026-300900-
NORTHEAST LOUISIANA

CITY           SKY/WX    TMP DP  RH WIND       PRES   REMARKS
BASTROP        FAIR      73  72  98 CALM      30.01S
TALLULAH/VBURG CLEAR     77  74  90 CALM      29.99S
$$




USA.gov is the U.S. government's official web portal to all federal, state and local government web resources and services.